EST,Max TemperatureF,Mean TemperatureF,Min TemperatureF,Max Dew PointF,MeanDew PointF,Min DewpointF,Max Humidity, Mean Humidity, Min Humidity, Max Sea Level PressureIn, Mean Sea Level PressureIn, Min Sea Level PressureIn, Max VisibilityMiles, Mean VisibilityMiles, Min VisibilityMiles, Max Wind SpeedMPH, Mean Wind SpeedMPH, Max Gust SpeedMPH,PrecipitationIn, CloudCover, Events, WindDirDegrees
2013-2-1,21,15,9,9,2,-2,73,60,48,30.05,29.71,29.44,10,9,2,10,8,22,0.00,5,Snow,293
2013-2-2,19,10,1,12,6,-4,86,73,44,30.16,30.04,29.96,10,6,2,8,3,,0.00,6,Snow,227
2013-2-3,25,10,-5,8,2,-10,88,72,41,30.03,29.90,29.71,10,10,9,5,0,,0.00,2,,180
2013-2-4,19,13,7,10,4,-12,84,63,39,29.86,29.66,29.58,10,6,1,14,6,26,0.00,7,Snow,288
2013-2-5,19,6,-7,2,-7,-13,80,53,27,30.01,29.95,29.87,10,10,10,8,3,,0.00,1,,287
2013-2-6,26,16,6,21,7,-9,86,68,37,30.29,29.97,29.84,10,6,0,13,3,24,0.03,6,Fog-Snow,304
2013-2-7,14,7,0,-4,-12,-19,66,47,22,30.55,30.48,30.33,10,10,9,6,3,,0.00,2,,315
2013-2-8,19,14,8,12,7,-9,81,74,46,30.50,30.25,29.93,10,3,1,13,4,22,0.04,8,Snow,355
2013-2-9,12,10,0,7,4,-6,85,74,58,30.27,29.97,29.84,10,3,0,15,9,23,0.24,6,Fog-Snow,341
2013-2-10,27,4,-18,7,-8,-26,83,64,30,30.44,30.38,30.28,10,10,8,6,1,,0.00,0,,293
2013-2-11,35,14,-8,30,17,-14,93,84,71,30.35,29.84,29.52,10,5,0,10,1,,0.16,7,Fog-Snow,56
2013-2-12,36,33,30,30,27,23,93,76,70,29.78,29.59,29.50,10,8,2,10,4,22,0.02,8,Snow,266
2013-2-13,33,30,27,24,22,21,85,73,61,29.81,29.77,29.75,10,10,8,7,3,,0.00,8,Snow,290
2013-2-14,32,24,16,23,19,13,88,72,54,29.97,29.87,29.72,10,10,9,8,1,,0.00,7,,328
2013-2-15,43,30,18,27,20,14,89,74,42,29.96,29.90,29.85,10,8,1,13,1,23,0.00,6,Snow,272
2013-2-16,28,24,19,23,16,4,88,72,50,29.96,29.91,29.86,10,7,1,9,2,,0.02,7,Snow,348
2013-2-17,18,14,10,5,2,-1,73,62,54,29.82,29.60,29.47,10,8,2,17,10,30,0.00,8,Snow,318
2013-2-18,21,12,3,0,-4,-10,70,54,30,30.12,29.86,29.61,10,6,2,17,11,36,0.00,4,Snow,303
2013-2-19,41,21,1,30,11,-7,93,60,22,30.15,29.87,29.54,10,8,2,16,2,26,0.00,5,Snow,167
2013-2-20,33,27,21,30,22,12,93,80,60,29.65,29.51,29.43,10,4,1,10,4,22,0.22,8,Snow,294
2013-2-21,23,16,10,17,7,1,92,70,59,30.26,29.87,29.60,10,4,1,10,6,22,0.00,8,Snow,300
2013-2-22,36,22,7,20,16,4,92,72,46,30.43,30.33,30.27,10,10,9,6,2,,0.00,4,,217
2013-2-23,33,26,19,28,25,16,93,80,66,30.30,30.05,29.91,10,6,1,14,6,23,0.07,8,Snow,154
2013-2-24,33,30,28,29,27,25,93,87,79,29.94,29.81,29.73,10,3,0,6,3,,0.27,8,Fog-Snow,333
2013-2-25,37,29,21,29,25,19,93,80,60,30.25,30.07,29.86,10,9,3,6,1,,0.00,7,Snow,342
2013-2-26,39,28,17,27,21,16,96,81,55,30.35,30.27,30.22,10,6,0,9,1,,0.00,7,Fog,149
2013-2-27,34,31,28,28,26,21,92,80,64,30.18,29.89,29.67,10,3,0,13,6,18,0.20,7,Fog-Snow,100
2013-2-28,39,34,28,32,29,26,93,88,75,29.69,29.58,29.53,10,4,0,8,2,,0.23,8,Fog-Snow,340